Location: B?ogocice
(50.2413°N, 20.2361°E)
Time: 22:56:56
(UTC+00:00)

SL-16 R/B - Pass Details

Date: 15 June 2024
Orbit: 984 x 1007 km, 99.7° (Epoch: 18 July)

Event Time Altitude Azimuth Distance (km) Brightness Sun altitude
Rises 01:29:35 0° 172° (S) 3,721 5.1 -7.4°
Reaches altitude 10° 01:32:05 10° 176° (S) 2,774 4.5 -7.1°
Maximum altitude 01:38:16 63° 257° (WSW) 1,112 2.6 -6.5°
Drops below altitude 10° 01:44:29 10° 338° (NNW) 2,779 5.3 -5.9°
Sets 01:47:00 0° 342° (NNW) 3,729 6.0 -5.6°
